Location: Brasstown Bald
(34.8693°N, 83.8103°W)
Time: 08:21:54
(UTC-04:00)

Amateur Radio Satellites - All Passes

Search period start: 04 September 2015 07:51
Search period end: 05 September 2015 07:51
Location: Brasstown Bald, 34.8693°N, 83.8103°W

Satellite Date Start Highest point End Downlink Frequencies (MHz)
Time Altitude Azimuth
Cosmos 2491 04 Sep 07:52:21 07:55:22 13° 80° (E) 07:59:09 435.465 / 435.565
VERMONT LUNAR 04 Sep 07:54:24 07:57:20 64° 207° (SSW) 08:00:17 437.305
AO-7 04 Sep 07:55:58 08:00:25 15° 305° (NW) 08:04:24 29.400- 29.500
ISS 04 Sep 07:59:49 08:03:03 81° 137° (SE) 08:06:19 145.825
PHONESAT 2.4 04 Sep 08:11:10 08:14:16 32° 6° (N) 08:17:23 2401.200-2431.200
AIST 1 04 Sep 08:22:13 08:26:21 55° 94° (E) 08:30:31
CUTE-I 04 Sep 08:23:36 08:28:48 54° 287° (WNW) 08:33:59 437.470
STRAND 1 04 Sep 08:40:24 08:44:59 33° 263° (W) 08:49:32 437.568
SO-50 04 Sep 08:47:09 08:48:59 12° 42° (NE) 08:51:03 436.795
YUBILEINY 04 Sep 08:58:08 09:07:00 76° 82° (E) 09:15:46 435.215
CANX-2 04 Sep 09:01:33 09:03:31 13° 91° (E) 09:05:43 2200.000
HO-68 04 Sep 09:04:16 09:09:40 24° 93° (E) 09:15:19 435.675
SEEDS 04 Sep 09:16:05 09:18:07 14° 91° (E) 09:20:22 437.485
Cubesat XI-IV 04 Sep 09:21:22 09:24:40 16° 294° (WNW) 09:27:44 437.490
PRISM 04 Sep 09:25:03 09:26:27 11° 269° (W) 09:27:35 437.425
BRITE-PL 04 Sep 09:25:05 09:30:41 70° 284° (WNW) 09:36:21 437.365/2234.400
DOVE 4 04 Sep 09:30:03 09:35:09 47° 98° (E) 09:40:08 437.250
COMPASS 1 04 Sep 09:31:10 09:33:40 16° 92° (E) 09:36:20 437.405
GOMX 1 04 Sep 09:34:45 09:40:18 88° 102° (ESE) 09:45:45 467.674
AAUSAT CUBESAT 2 04 Sep 09:37:58 09:40:27 16° 92° (E) 09:43:06 437.432
ISS 04 Sep 09:38:15 09:39:52 13° 334° (NNW) 09:41:25 145.825
Cosmos 2491 04 Sep 09:42:27 09:51:09 84° 96° (E) 09:59:53 435.465 / 435.565
CINEMA 3 04 Sep 09:48:13 09:52:27 29° 94° (E) 09:56:37 145.822/145.860
PHONESAT 2.4 04 Sep 09:49:01 09:52:26 82° 26° (NNE) 09:55:49 2401.200-2431.200
TIGRISAT 04 Sep 10:11:22 10:13:19 13° 67° (ENE) 10:15:31 435.000
Cosmos 2504 04 Sep 10:14:34 10:21:37 30° 71° (ENE) 10:28:27 435.465 / 435.565
CUTE 1.7 + AOD 2 04 Sep 10:20:52 10:25:05 69° 283° (WNW) 10:29:14 437.475
SO-50 04 Sep 10:25:23 10:30:20 89° 227° (SW) 10:35:06 436.795
ANTELSAT 04 Sep 10:28:31 10:31:56 21° 70° (ENE) 10:35:30 437.575/2403.000
CUSAT 1 04 Sep 10:32:13 10:39:03 31° 71° (ENE) 10:46:06 437.405
ZACube-1 04 Sep 10:33:17 10:36:29 20° 93° (E) 10:39:45 437.345
CANX-2 04 Sep 10:35:43 10:39:40 39° 286° (WNW) 10:43:35 2200.000
FUNcube-1 04 Sep 10:36:46 10:40:05 21° 93° (E) 10:43:26 145.935
PCSat 04 Sep 10:37:02 10:41:35 28° 54° (NE) 10:46:14 145.827
UWE-3 04 Sep 10:48:10 10:52:27 41° 98° (E) 10:56:36 435.000/436.395/437.385
CUBEBUG 2 04 Sep 10:49:14 10:53:48 58° 100° (E) 10:58:12 437.445
SEEDS 04 Sep 10:50:13 10:54:07 38° 286° (WNW) 10:57:57 437.485
HO-68 04 Sep 10:50:48 10:57:50 57° 289° (WNW) 11:04:47 435.675
YUBILEINY 04 Sep 10:57:06 11:03:00 19° 277° (W) 11:08:20 435.215
AUBIESAT-1 04 Sep 11:01:45 11:06:13 43° 69° (ENE) 11:10:37 437.475
COMPASS 1 04 Sep 11:05:43 11:09:27 32° 287° (WNW) 11:13:07 437.405
DELFI C3 04 Sep 11:08:30 11:12:23 52° 100° (E) 11:16:16 145.870
DOVE 4 04 Sep 11:08:46 11:12:31 19° 292° (WNW) 11:16:02 437.250
M-CUBED/EXP-1 PRIME 04 Sep 11:10:38 11:15:23 65° 71° (ENE) 11:20:04 437.505
AAUSAT CUBESAT 2 04 Sep 11:12:27 11:16:09 32° 287° (WNW) 11:19:48 437.432
GOMX 1 04 Sep 11:16:02 11:17:43 11° 296° (WNW) 11:19:03 467.674
Oscar 11 04 Sep 11:16:43 11:21:02 75° 283° (WNW) 11:25:18 145.826/435.025
DX 1 04 Sep 11:17:39 11:19:10 12° 91° (E) 11:20:57 434.975-435.025
UNISAT 6 04 Sep 11:17:59 11:22:39 73° 76° (ENE) 11:27:22 437.425
UKube-1 04 Sep 11:23:50 11:25:32 12° 91° (E) 11:27:30 .
CINEMA 3 04 Sep 11:25:27 11:29:32 26° 290° (WNW) 11:33:25 145.822/145.860
DANDE 04 Sep 11:27:35 11:35:28 54° 77° (ENE) 11:43:46 436.750
PHONESAT 2.4 04 Sep 11:27:39 11:30:01 17° 216° (SW) 11:32:19 2401.200-2431.200
BUGSAT 1 04 Sep 11:31:33 11:34:17 18° 70° (ENE) 11:37:11 437.445
DUCHIFAT 1 04 Sep 11:40:02 11:43:58 39° 73° (ENE) 11:47:57 145.980
POLYITAN 1 04 Sep 11:42:04 11:46:07 45° 74° (ENE) 11:50:15 437.675
POPSAT HIP 1 04 Sep 11:43:05 11:47:06 44° 74° (ENE) 11:51:13 437.405
Cosmos 2491 04 Sep 11:43:42 11:49:17 17° 296° (WNW) 11:54:20 435.465 / 435.565
TIGRISAT 04 Sep 11:44:59 11:49:36 58° 260° (W) 11:54:16 435.000
AISAT 04 Sep 11:54:03 11:57:28 22° 95° (E) 12:00:59 437.250
ESTCUBE 1 04 Sep 11:55:52 11:58:36 16° 92° (E) 12:01:33 437.505/2401.250
NANOSAT C BR1 04 Sep 11:58:43 12:02:56 70° 76° (ENE) 12:07:11 145.865
QB50P2 04 Sep 12:00:52 12:05:07 79° 76° (ENE) 12:09:25 145.880/145.840
ANTELSAT 04 Sep 12:04:13 12:08:30 34° 263° (W) 12:12:46 437.575/2403.000
Cosmos 2504 04 Sep 12:06:13 12:14:09 48° 270° (W) 12:21:29 435.465 / 435.565
ZACube-1 04 Sep 12:09:01 12:12:53 29° 288° (WNW) 12:16:37 437.345
FUNcube-1 04 Sep 12:12:37 12:16:24 28° 289° (WNW) 12:20:03 145.935
CUSAT 1 04 Sep 12:14:03 12:21:58 56° 267° (W) 12:29:42 437.405
QB50P1 04 Sep 12:14:05 12:18:19 74° 258° (WSW) 12:22:36 145.935-145.965
PCSat 04 Sep 12:20:08 12:25:04 35° 250° (WSW) 12:29:55 145.827
VELOX 1 04 Sep 12:20:26 12:24:40 42° 98° (E) 12:28:55 145.980
HUMSAT D 04 Sep 12:20:53 12:25:01 55° 284° (WNW) 12:29:02 437.325/437.525
UWE-3 04 Sep 12:25:51 12:28:37 16° 292° (WNW) 12:31:09 435.000/436.395/437.385
CUBEBUG 2 04 Sep 12:28:07 12:29:59 12° 294° (WNW) 12:31:34 437.445
JUGNU 04 Sep 12:33:46 12:37:20 16° 172° (S) 12:40:55 437.505
AUBIESAT-1 04 Sep 12:37:49 12:41:02 17° 263° (W) 12:44:03 437.475
M-CUBED/EXP-1 PRIME 04 Sep 12:48:39 12:50:31 12° 265° (W) 12:52:02 437.505
DX 1 04 Sep 12:51:29 12:55:44 49° 286° (WNW) 12:59:58 434.975-435.025
50 SAT 04 Sep 12:53:50 12:57:35 52° 285° (WNW) 13:01:17 437.505
UKube-1 04 Sep 12:57:47 13:01:58 46° 286° (WNW) 13:06:07 .
SPROUT 04 Sep 12:58:29 13:01:35 20° 93° (E) 13:04:48 437.525
BUGSAT 1 04 Sep 13:05:59 13:09:33 29° 264° (W) 13:13:09 437.445
DANDE 04 Sep 13:11:18 13:18:22 32° 270° (W) 13:25:25 436.750
DUCHIFAT 1 04 Sep 13:17:36 13:19:58 14° 269° (W) 13:22:08 145.980
CUBEBUG 1 04 Sep 13:17:44 13:22:08 67° 284° (WNW) 13:26:32 437.445
POLYITAN 1 04 Sep 13:20:21 13:22:18 12° 269° (W) 13:24:02 437.675
POPSAT HIP 1 04 Sep 13:21:21 13:23:16 12° 269° (W) 13:24:57 437.405
AISAT 04 Sep 13:30:09 13:34:02 29° 289° (WNW) 13:37:51 437.250
ESTCUBE 1 04 Sep 13:31:28 13:35:39 38° 287° (WNW) 13:39:48 437.505/2401.250
TISAT 1 04 Sep 13:45:50 13:49:49 38° 98° (E) 13:53:48 437.305
GONETS M04 04 Sep 13:46:21 13:54:09 35° 73° (ENE) 14:02:07
SRMSAT 04 Sep 13:51:46 13:54:45 14° 169° (S) 13:57:47 437.500
VELOX 1 04 Sep 13:58:09 14:00:54 16° 292° (WNW) 14:03:27 145.980
Oscar 19 04 Sep 14:00:16 14:05:17 56° 74° (ENE) 14:10:23 437.125/150
BEESAT 3 04 Sep 14:09:52 14:13:31 34° 114° (ESE) 14:17:15 437.485
JUGNU 04 Sep 14:21:43 14:25:40 18° 182° (S) 14:29:35 437.505
ITUPSAT 1 04 Sep 14:22:12 14:24:41 15° 91° (E) 14:27:25 437.325
BEESAT 2 04 Sep 14:27:52 14:31:42 40° 115° (ESE) 14:35:35 435.950
ISS 04 Sep 14:30:27 14:33:01 21° 33° (NNE) 14:35:37 145.825
SPROUT 04 Sep 14:33:54 14:37:42 29° 288° (WNW) 14:41:25 437.525
JAS-2 04 Sep 14:46:45 14:53:17 32° 67° (ENE) 15:00:04 435.910
BEESAT 04 Sep 14:51:22 14:55:35 32° 97° (E) 14:59:50 436.000
AO-7 04 Sep 15:05:52 15:11:33 22° 58° (ENE) 15:17:33 29.400- 29.500
ITAMSAT 1 04 Sep 15:08:02 15:13:07 63° 74° (ENE) 15:18:14 435.822/435.867
Gurwin Techsat 1B 04 Sep 15:13:37 15:18:56 88° 82° (E) 15:24:17 435.225
SWISSCUBE 04 Sep 15:17:33 15:22:18 69° 102° (ESE) 15:27:03 437.505
TISAT 1 04 Sep 15:22:40 15:25:17 15° 291° (WNW) 15:27:43 437.305
AIST 2 04 Sep 15:32:04 15:35:59 38° 114° (ESE) 15:39:58 435.215
SRMSAT 04 Sep 15:39:17 15:43:13 18° 179° (S) 15:47:09 437.500
Cosmos 2499 04 Sep 15:41:02 15:49:13 50° 77° (ENE) 15:56:51 435.465 / 435.565
Oscar 19 04 Sep 15:42:14 15:45:05 14° 270° (W) 15:47:38 437.125/150
GONETS M04 04 Sep 15:42:55 15:51:10 45° 271° (W) 15:59:18
BEESAT 3 04 Sep 15:48:38 15:51:34 18° 310° (NW) 15:54:24 437.485
RS-15 04 Sep 15:56:31 16:07:03 60° 112° (ESE) 16:18:01 29.354- 29.394
ITUPSAT 1 04 Sep 15:58:18 16:02:53 47° 286° (WNW) 16:07:26 437.325
STARS 04 Sep 16:05:02 16:07:48 17° 93° (E) 16:10:42 437.465
ISS 04 Sep 16:06:32 16:09:30 32° 228° (SW) 16:12:24 145.825
BEESAT 2 04 Sep 16:07:15 16:09:56 16° 311° (NW) 16:12:31 435.950
JUGNU 04 Sep 16:11:16 16:13:58 13° 192° (SSW) 16:16:36 437.505
BEESAT 04 Sep 16:29:33 16:33:16 22° 291° (WNW) 16:36:52 436.000
JAS-2 04 Sep 16:30:34 16:38:00 51° 262° (W) 16:45:34 435.910
KKS-1 04 Sep 16:32:49 16:37:17 64° 101° (E) 16:41:44 437.445
HORYU 2 04 Sep 16:39:31 16:43:58 64° 75° (ENE) 16:48:26 437.375
ITAMSAT 1 04 Sep 16:50:48 16:53:08 12° 270° (W) 16:55:07 435.822/435.867
AO-7 04 Sep 16:55:14 17:03:36 78° 255° (WSW) 17:11:58 29.400- 29.500
SWISSCUBE 04 Sep 16:58:17 16:59:38 11° 295° (WNW) 17:00:41 437.505
AIST 2 04 Sep 17:11:42 17:14:43 18° 310° (NW) 17:17:38 435.215
MOZHAYETS 4 04 Sep 17:15:36 17:19:19 25° 95° (E) 17:23:07
SRMSAT 04 Sep 17:28:22 17:31:42 15° 189° (S) 17:34:58 437.500
Cosmos 2499 04 Sep 17:34:58 17:41:58 29° 275° (W) 17:48:20 435.465 / 435.565
STARS 04 Sep 17:40:17 17:44:23 36° 287° (WNW) 17:48:25 437.465
CUTE-I 04 Sep 18:03:59 18:07:37 20° 67° (ENE) 18:11:25 437.470
RS-15 04 Sep 18:10:02 18:20:05 38° 315° (NW) 18:30:18 29.354- 29.394
KKS-1 04 Sep 18:12:21 18:13:25 11° 294° (WNW) 18:14:13 437.445
AIST 1 04 Sep 18:35:48 18:36:10 10° 70° (ENE) 18:36:51
MOZHAYETS 4 04 Sep 18:52:42 18:56:29 25° 289° (WNW) 19:00:10
AO-7 04 Sep 18:54:44 18:57:48 12° 272° (W) 19:00:03 29.400- 29.500
Cubesat XI-IV 04 Sep 18:58:24 19:03:40 67° 75° (ENE) 19:08:58 437.490
O/OREOS (USA 219) 04 Sep 19:17:16 19:21:46 64° 291° (WNW) 19:26:19 437.305
CUBESAT XI-V 04 Sep 19:20:31 19:25:01 49° 99° (E) 19:29:33 437.345
HO-68 04 Sep 19:32:35 19:35:14 13° 58° (ENE) 19:38:23 435.675
CUTE-I 04 Sep 19:42:18 19:47:23 45° 261° (W) 19:52:28 437.470
Cosmos 2491 04 Sep 19:57:26 20:05:11 35° 73° (ENE) 20:13:08 435.465 / 435.565
YUBILEINY 04 Sep 20:02:42 20:07:09 16° 81° (E) 20:12:15 435.215
AIST 1 04 Sep 20:10:00 20:14:15 54° 266° (W) 20:18:30
RS-15 04 Sep 20:32:09 20:37:23 14° 347° (NNW) 20:42:26 29.354- 29.394
DOVE 4 04 Sep 20:32:24 20:36:27 31° 71° (ENE) 20:40:49 437.250
BRITE-PL 04 Sep 20:32:52 20:37:16 86° 259° (W) 20:42:03 437.365/2234.400
GOMX 1 04 Sep 20:39:32 20:44:01 63° 75° (ENE) 20:48:53 467.674
Cubesat XI-IV 04 Sep 20:42:06 20:44:20 12° 270° (W) 20:46:14 437.490
CINEMA 3 04 Sep 20:47:03 20:50:19 19° 68° (ENE) 20:53:49 145.822/145.860
STRAND 1 04 Sep 20:53:36 20:58:43 75° 284° (WNW) 21:03:49 437.568
CUBESAT XI-V 04 Sep 20:59:28 21:02:05 15° 292° (WNW) 21:04:30 437.345
PRISM 04 Sep 21:07:11 21:11:17 65° 284° (WNW) 21:15:22 437.425
CUTE 1.7 + AOD 2 04 Sep 21:10:03 21:14:12 52° 75° (ENE) 21:18:23 437.475
HO-68 04 Sep 21:14:52 21:22:01 79° 73° (ENE) 21:29:13 435.675
CANX-2 04 Sep 21:24:37 21:28:55 90° 266° (W) 21:33:12 2200.000
ZACube-1 04 Sep 21:27:24 21:29:04 12° 67° (ENE) 21:31:01 437.345
FUNcube-1 04 Sep 21:30:30 21:32:23 13° 67° (ENE) 21:34:32 145.935
SEEDS 04 Sep 21:38:11 21:42:26 89° 257° (WSW) 21:46:41 437.485
UWE-3 04 Sep 21:42:03 21:45:44 24° 71° (ENE) 21:49:33 435.000/436.395/437.385
CUBEBUG 2 04 Sep 21:43:52 21:48:01 33° 72° (ENE) 21:52:18 437.445
COMPASS 1 04 Sep 21:52:43 21:56:56 78° 258° (WSW) 22:01:08 437.405
DELFI C3 04 Sep 21:52:52 21:55:51 21° 71° (ENE) 21:58:55 145.870
Cosmos 2491 04 Sep 21:54:03 22:02:13 44° 271° (W) 22:10:17 435.465 / 435.565
YUBILEINY 04 Sep 21:54:12 22:03:01 86° 278° (W) 22:11:54 435.215
AAUSAT CUBESAT 2 04 Sep 21:58:59 22:03:10 78° 259° (WSW) 22:07:22 437.432
Oscar 11 04 Sep 22:07:53 22:12:07 53° 75° (ENE) 22:16:22 145.826/435.025
DOVE 4 04 Sep 22:10:31 22:14:16 23° 268° (W) 22:18:05 437.250
GOMX 1 04 Sep 22:22:01 22:22:50 10° 274° (W) 22:23:17 467.674
CINEMA 3 04 Sep 22:22:46 22:27:12 39° 264° (W) 22:31:47 145.822/145.860
Cosmos 2504 04 Sep 22:40:52 22:46:57 25° 84° (E) 22:53:35 435.465 / 435.565
CUTE 1.7 + AOD 2 04 Sep 22:49:30 22:50:29 10° 270° (W) 22:51:10 437.475
RS-15 04 Sep 22:49:45 22:56:42 18° 24° (NNE) 23:04:17 29.354- 29.394
AISAT 04 Sep 22:49:56 22:51:59 14° 67° (ENE) 22:54:17 437.250
BEESAT 2 04 Sep 22:52:05 22:52:57 11° 45° (NE) 22:54:01 435.950
ESTCUBE 1 04 Sep 22:54:31 22:55:20 11° 66° (ENE) 22:56:26 437.505/2401.250
ZACube-1 04 Sep 23:00:29 23:04:57 58° 260° (W) 23:09:31 437.345
FUNcube-1 04 Sep 23:03:48 23:08:16 55° 261° (W) 23:12:47 145.935
HO-68 04 Sep 23:06:19 23:10:35 16° 270° (W) 23:14:22 435.675
HUMSAT D 04 Sep 23:08:36 23:12:52 64° 76° (ENE) 23:17:10 437.325/437.525
UNISAT 6 04 Sep 23:14:33 23:17:43 19° 93° (E) 23:20:56 437.425
VELOX 1 04 Sep 23:15:11 23:18:42 25° 71° (ENE) 23:22:22 145.980
UWE-3 04 Sep 23:18:08 23:22:09 28° 265° (W) 23:26:08 435.000/436.395/437.385
CUBEBUG 2 04 Sep 23:21:12 23:24:46 21° 267° (W) 23:28:15 437.445
DELFI C3 04 Sep 23:27:26 23:30:47 24° 265° (W) 23:34:04 145.870
50 SAT 04 Sep 23:33:27 23:37:14 47° 75° (ENE) 23:41:04 437.505
CUSAT 1 04 Sep 23:36:25 23:39:26 20° 84° (E) 23:43:14 437.405
TIGRISAT 04 Sep 23:40:29 23:44:38 37° 97° (E) 23:48:43 435.000
DX 1 04 Sep 23:43:21 23:47:41 90° 256° (WSW) 23:52:03 434.975-435.025
Oscar 11 04 Sep 23:47:34 23:48:40 11° 270° (W) 23:49:29 145.826/435.025
NANOSAT C BR1 04 Sep 23:48:22 23:50:40 15° 92° (E) 23:53:09 145.865
UKube-1 04 Sep 23:48:48 23:53:06 87° 257° (WSW) 23:57:26 .
QB50P2 04 Sep 23:50:41 23:53:22 17° 92° (E) 23:56:12 145.880/145.840
SPROUT 04 Sep 23:51:49 23:52:32 10° 67° (ENE) 23:53:31 437.525
YUBILEINY 04 Sep 23:56:34 00:01:25 15° 298° (WNW) 00:05:37 435.215
AIST 2 04 Sep 23:58:47 23:59:57 11° 45° (NE) 00:01:19 435.215
ANTELSAT 04 Sep 23:59:16 00:03:46 66° 101° (ESE) 00:08:07 437.575/2403.000
QB50P1 05 Sep 00:03:07 00:06:29 23° 94° (E) 00:09:55 145.935-145.965
BEESAT 3 05 Sep 00:08:35 00:12:36 82° 242° (WSW) 00:16:33 437.485
CUBEBUG 1 05 Sep 00:10:17 00:14:33 65° 76° (ENE) 00:18:52 437.445
AUBIESAT-1 05 Sep 00:20:35 00:24:10 47° 103° (ESE) 00:27:30 437.475
AISAT 05 Sep 00:23:56 00:28:11 47° 261° (W) 00:32:28 437.250
ESTCUBE 1 05 Sep 00:27:17 00:31:44 63° 260° (W) 00:36:11 437.505/2401.250
BEESAT 2 05 Sep 00:27:29 00:31:30 68° 243° (WSW) 00:35:27 435.950
M-CUBED/EXP-1 PRIME 05 Sep 00:30:20 00:34:06 85° 105° (ESE) 00:37:35 437.505
Cosmos 2504 05 Sep 00:30:30 00:38:34 61° 280° (W) 00:47:02 435.465 / 435.565
TISAT 1 05 Sep 00:35:26 00:38:21 19° 70° (ENE) 00:41:24 437.305
SO-50 05 Sep 00:36:05 00:40:46 66° 117° (ESE) 00:45:38 436.795
DANDE 05 Sep 00:36:40 00:40:09 54° 93° (E) 00:44:50 436.750
UNISAT 6 05 Sep 00:50:34 00:54:34 31° 288° (WNW) 00:58:25 437.425
BUGSAT 1 05 Sep 00:50:43 00:54:51 49° 99° (E) 00:59:00 437.445
VELOX 1 05 Sep 00:51:35 00:55:12 24° 265° (W) 00:58:45 145.980
RS-15 05 Sep 01:01:22 01:12:54 54° 52° (NE) 01:24:52 29.354- 29.394
DUCHIFAT 1 05 Sep 01:03:13 01:07:29 68° 284° (WNW) 01:11:42 145.980
POLYITAN 1 05 Sep 01:06:16 01:10:30 58° 285° (WNW) 01:14:41 437.675
POPSAT HIP 1 05 Sep 01:06:59 01:11:13 59° 285° (WNW) 01:15:25 437.405
PCSat 05 Sep 01:14:49 01:19:58 48° 112° (ESE) 01:25:11 145.827
CUSAT 1 05 Sep 01:17:58 01:21:39 28° 291° (WNW) 01:26:17 437.405
TIGRISAT 05 Sep 01:18:07 01:21:06 17° 292° (WNW) 01:23:52 435.000
NANOSAT C BR1 05 Sep 01:22:42 01:26:41 38° 287° (WNW) 01:30:37 145.865
SPROUT 05 Sep 01:23:55 01:28:09 59° 260° (W) 01:32:25 437.525
QB50P2 05 Sep 01:25:28 01:29:22 34° 287° (WNW) 01:33:12 145.880/145.840
ITUPSAT 1 05 Sep 01:26:56 01:28:46 12° 66° (ENE) 01:30:53 437.325
AIST 2 05 Sep 01:34:54 01:39:02 69° 243° (WSW) 01:43:06 435.215
QB50P1 05 Sep 01:38:44 01:42:18 25° 289° (WNW) 01:45:45 145.935-145.965
ANTELSAT 05 Sep 01:39:41 01:39:59 10° 295° (WNW) 01:40:00 437.575/2403.000
BEESAT 05 Sep 01:54:55 01:58:46 26° 70° (ENE) 02:02:44 436.000
VERMONT LUNAR 05 Sep 01:57:25 02:00:20 49° 152° (SSE) 02:03:16 437.305
TISAT 1 05 Sep 02:10:13 02:13:55 29° 264° (W) 02:17:37 437.305
Oscar 19 05 Sep 02:15:46 02:20:02 26° 95° (E) 02:24:23 437.125/150
SO-50 05 Sep 02:18:56 02:21:52 15° 315° (NW) 02:24:40 436.795
SWISSCUBE 05 Sep 02:20:43 02:25:20 54° 74° (ENE) 02:29:59 437.505
BUGSAT 1 05 Sep 02:28:03 02:29:56 12° 292° (WNW) 02:31:35 437.445
GONETS M04 05 Sep 02:43:00 02:51:00 45° 89° (E) 02:59:10
PCSat 05 Sep 02:59:30 03:03:40 22° 309° (NW) 03:07:44 145.827
STARS 05 Sep 03:01:05 03:01:38 10° 66° (ENE) 03:02:28 437.465
ITUPSAT 1 05 Sep 03:01:29 03:06:12 61° 259° (W) 03:10:56 437.325
RS-15 05 Sep 03:14:15 03:25:17 43° 251° (WSW) 03:36:18 29.354- 29.394
ITAMSAT 1 05 Sep 03:24:40 03:29:06 29° 96° (E) 03:33:38 435.822/435.867
KKS-1 05 Sep 03:27:42 03:31:48 38° 72° (ENE) 03:35:57 437.445
BEESAT 05 Sep 03:32:27 03:36:32 27° 264° (W) 03:40:33 436.000
Gurwin Techsat 1B 05 Sep 03:33:25 03:38:30 46° 99° (E) 03:43:36 435.225
VERMONT LUNAR 05 Sep 03:34:00 03:36:48 35° 347° (NNW) 03:39:36 437.305
JAS-2 05 Sep 03:45:51 03:51:26 30° 92° (E) 03:56:33 435.910
O/OREOS (USA 219) 05 Sep 03:53:25 03:55:16 12° 56° (NE) 03:57:22 437.305
Oscar 19 05 Sep 03:54:49 03:59:24 31° 290° (WNW) 04:03:53 437.125/150
SWISSCUBE 05 Sep 04:01:21 04:03:35 13° 269° (W) 04:05:31 437.505
PHONESAT 2.4 05 Sep 04:08:48 04:12:05 46° 151° (SSE) 04:15:24 2401.200-2431.200
Cosmos 2499 05 Sep 04:12:00 04:19:52 45° 89° (E) 04:28:11 435.465 / 435.565
MOZHAYETS 4 05 Sep 04:15:06 04:18:01 17° 69° (ENE) 04:21:05
STARS 05 Sep 04:33:13 04:37:35 64° 259° (W) 04:42:00 437.465
HORYU 2 05 Sep 04:35:26 04:38:01 16° 92° (E) 04:40:48 437.375
GONETS M04 05 Sep 04:40:15 04:48:02 34° 287° (WNW) 04:55:41
AO-7 05 Sep 05:00:55 05:08:42 45° 100° (E) 05:16:33 29.400- 29.500
ITAMSAT 1 05 Sep 05:04:08 05:08:34 28° 290° (WNW) 05:12:54 435.822/435.867
KKS-1 05 Sep 05:05:44 05:08:36 16° 268° (W) 05:11:18 437.445
VERMONT LUNAR 05 Sep 05:11:01 05:13:37 26° 4° (N) 05:16:13 437.305
Gurwin Techsat 1B 05 Sep 05:14:24 05:18:10 19° 293° (WNW) 05:21:45 435.225
JAS-2 05 Sep 05:30:36 05:36:37 36° 292° (WNW) 05:41:55 435.910
O/OREOS (USA 219) 05 Sep 05:30:39 05:35:11 58° 253° (WSW) 05:39:39 437.305
PHONESAT 2.4 05 Sep 05:46:43 05:50:00 42° 346° (NNW) 05:53:16 2401.200-2431.200
MOZHAYETS 4 05 Sep 05:50:38 05:54:58 39° 262° (W) 05:59:16
Cosmos 2499 05 Sep 06:05:27 06:13:12 36° 287° (WNW) 06:21:04 435.465 / 435.565
HORYU 2 05 Sep 06:10:43 06:14:51 38° 287° (WNW) 06:18:56 437.375
CUBESAT XI-V 05 Sep 06:20:51 06:24:53 32° 72° (ENE) 06:28:59 437.345
STRAND 1 05 Sep 06:31:00 06:32:29 11° 65° (ENE) 06:34:18 437.568
VERMONT LUNAR 05 Sep 06:47:22 06:50:19 62° 20° (NNE) 06:53:15 437.305
AO-7 05 Sep 06:53:57 07:01:23 37° 296° (WNW) 07:08:38 29.400- 29.500
ISS 05 Sep 07:06:52 07:09:51 34° 132° (SE) 07:12:51 145.825
Cubesat XI-IV 05 Sep 07:19:22 07:24:11 35° 97° (E) 07:29:04 437.490
PHONESAT 2.4 05 Sep 07:25:14 07:28:18 30° 3° (N) 07:31:23 2401.200-2431.200
